Starlink 5372

operational
NORAD ID: 54838 Int'l Des: 2022-177 Owner: SPXS Country: US Constellation: starlink
LEOCIRCULAR

Starlink 5372について

説明を読み込み中...

リアルタイム位置

3D地球を読み込み中...

次回通過

高度履歴

Altitude vs Time

uPlot chart will show altitude changes over time

軌道要素

1 54838U 22177U 25302.22961631 -.00000717 00000-0 -37966-4 0 9991
2 54838 43.0029 127.3608 0001144 270.4992 89.5719 15.02544250157187
Epoch: Oct 29, 2025 • Age: 22 hours

現在のステータス

高度 570.9 km
速度 7.58 km/s
衛星直下点 -41.36°S, 38.9°W
打ち上げ日 Dec 28, 2022
運用期間 2.8 years
タイプ internet

技術仕様

分類 Payload
質量 305.00 kg
乾燥質量 290.00 kg
総質量 305.00 kg
長さ 0.20 m
直径 2.80 m
スパン 9.00 m
形状 Box + pan
製造者 SPXS
バスタイプ Starlink
フェーズステータス In Orbit
所有者/国 SPXS/US

大規模コンステレーション

Loading constellations...